This demonstration page uses our WeatherBlox Daily Observations layout. Learn more.

Left ArrowRight Arrow

34.02893, -84.19858

Hourly Observations for June 21, 2022

Temp ( °F °C ) Dew Point ( °F °C ) Humidity (%) Winds ( mph kmh ) Pressure ( in mb ) Visibility ( mi km ) Precip ( " mm )
12:53 am 00:53 Clear 72 22.2 61 16.1 68 68 Calm 30.13 1020 10 16 0.00 0.00
1:53 am 01:53 Clear 71 21.7 62 16.7 73 73 Calm 30.13 1020 10 16 0.00 0.00
2:53 am 02:53 Clear 70 21.1 62 16.7 76 76 S 3 6 30.13 1020 10 16 0.00 0.00
3:53 am 03:53 Clear 68 20 63 17.2 84 84 Calm 30.13 1020 10 16 0.00 0.00
4:53 am 04:53 Clear 67 19.4 63 17.2 87 87 S 3 6 30.13 1020 10 16 0.00 0.00
5:53 am 05:53 Clear 67 19.4 63 17.2 87 87 Calm 30.14 1021 10 16 0.00 0.00
6:53 am 06:53 Sunny 66 18.9 63 17.2 90 90 Calm 30.17 1022 10 16 0.00 0.00
7:53 am 07:53 Sunny 72 22.2 65 18.3 79 79 SW 3 6 30.18 1022 10 16 0.00 0.00
8:53 am 08:53 Sunny 76 24.4 64 17.8 67 67 Calm 30.20 1023 10 16 0.00 0.00
9:53 am 09:53 Sunny 83 28.3 62 16.7 49 49 NNW 6 9 30.21 1023 10 16 0.00 0.00
10:53 am 10:53 Sunny 85 29.4 60 15.6 43 43 NW 9 15 30.20 1023 10 16 0.00 0.00
11:53 am 11:53 Sunny 90 32.2 61 16.1 38 38 NNW 13 20 30.19 1022 10 16 0.00 0.00
12:53 pm 12:53 Sunny 91 32.8 61 16.1 37 37 NW 10 17 30.18 1022 10 16 0.00 0.00
1:53 pm 13:53 Sunny 92 33.3 61 16.1 36 36 NNW 9 15 30.16 1022 10 16 0.00 0.00
2:53 pm 14:53 Sunny 94 34.4 59 15 31 31 NW 9 15 30.15 1021 10 16 0.00 0.00
3:53 pm 15:53 Sunny 94 34.4 59 15 31 31 WNW 5 7 30.13 1020 10 16 0.00 0.00
4:53 pm 16:53 Sunny 95 35 58 14.4 29 29 NNE 8 13 30.11 1020 10 16 0.00 0.00
5:53 pm 17:53 Sunny 95 35 56 13.3 27 27 NNE 9 15 30.09 1019 10 16 0.00 0.00
6:53 pm 18:53 Sunny 94 34.4 59 15 31 31 N 7 11 30.08 1019 10 16 0.00 0.00
7:53 pm 19:53 Sunny 92 33.3 59 15 33 33 N 6 9 30.07 1018 10 16 0.00 0.00
8:53 pm 20:53 Clear 85 29.4 60 15.6 43 43 N 5 7 30.08 1019 10 16 0.00 0.00
9:53 pm 21:53 Clear 81 27.2 61 16.1 51 51 Calm 30.09 1019 10 16 0.00 0.00
10:53 pm 22:53 Clear 76 24.4 62 16.7 62 62 Calm 30.10 1019 10 16 0.00 0.00
11:53 pm 23:53 Clear 73 22.8 62 16.7 69 69 Calm 30.10 1019 10 16 0.00 0.00

Powered by AerisWeather